FW7903 Weather Reports


Display with metric or nautical units.
time (UTC)temp
F
wind
direction
speed
MPH
gust
MPH
rain 1hr
in
rain 24hr
in
rain mn
in
humidity
%
barometer
mb
20260507223106 57 275 6.0 13.0 0.00 0.19 0.02 39 1005.1
20260507221537 57 325 6.0 14.0 0.00 0.19 0.02 42 1005.0
20260507220035 57 281 4.0 12.0 0.00 0.19 0.02 42 1004.9
20260507214536 57 242 4.0 13.0 0.00 0.31 0.02 42 1004.8
20260507213034 60 246 7.0 15.0 0.00 0.31 0.02 40 1004.8
20260507211533 60 238 8.0 14.0 0.00 0.31 0.02 41 1004.6
20260507210040 60 284 8.0 17.0 0.00 0.31 0.02 37 1004.5
20260507204540 60 263 9.0 22.0 0.00 0.43 0.02 36 1004.3
20260507203037 60 302 11.0 21.0 0.00 0.43 0.02 39 1004.2
20260507201531 60 277 9.0 22.0 0.00 0.43 0.02 37 1004.2
20260507200049 61 0 8.0 18.0 0.00 0.43 0.02 38 1004.1
20260507194536 60 249 11.0 21.0 0.00 0.47 0.02 40 1004.3
20260507193043 60 259 10.0 19.0 0.00 0.47 0.02 41 1004.4
20260507191534 60 290 6.0 16.0 0.00 0.47 0.02 46 1004.5
20260507190036 59 265 10.0 17.0 0.00 0.47 0.02 45 1004.6
20260507184536 56 267 5.0 9.0 0.00 0.64 0.02 45 1004.7
20260507183040 58 239 6.0 16.0 0.00 0.64 0.02 46 1004.8
20260507181535 59 269 8.0 23.0 0.00 0.64 0.02 43 1004.7
20260507180032 59 268 8.0 16.0 0.00 0.64 0.02 40 1004.8
20260507174537 58 267 13.0 24.0 0.00 0.67 0.02 46 1005.0
20260507173031 59 178 10.0 20.0 0.00 0.67 0.02 61 1005.0
20260507171539 59 271 10.0 23.0 0.00 0.67 0.02 56 1005.0
20260507170043 59 262 9.0 20.0 0.00 0.67 0.02 58 1005.0
20260507164534 59 271 10.0 16.0 0.00 0.67 0.02 54 1005.2
20260507163032 59 297 8.0 17.0 0.00 0.67 0.02 60 1005.4
20260507161532 57 259 6.0 13.0 0.00 0.67 0.02 61 1005.3
20260507160040 59 307 9.0 15.0 0.00 0.67 0.02 58 1005.5
20260507154532 56 286 3.0 11.0 0.00 0.67 0.02 63 1005.6
20260507153037 56 230 6.0 17.0 0.00 0.67 0.02 65 1005.9
20260507151536 56 272 6.0 12.0 0.00 0.67 0.02 62 1005.9
20260507150035 56 206 5.0 11.0 0.00 0.67 0.02 64 1006.0
20260507144532 56 268 2.0 9.0 0.00 0.67 0.02 65 1006.0
20260507143033 56 298 4.0 10.0 0.00 0.67 0.02 62 1006.1
20260507141531 55 300 3.0 11.0 0.00 0.67 0.02 71 1006.2
20260507140035 54 264 2.0 12.0 0.00 0.67 0.02 72 1006.5
20260507134534 54 271 6.0 12.0 0.00 0.67 0.02 72 1006.6
20260507133035 53 296 4.0 14.0 0.00 0.67 0.02 72 1006.8
20260507131533 53 339 2.0 10.0 0.00 0.67 0.02 77 1006.6
20260507130053 53 293 3.0 9.0 0.00 0.67 0.02 78 1006.8
20260507124536 52 277 3.0 8.0 0.00 0.67 0.02 78 1006.8
20260507123040 51 341 1.0 9.0 0.00 0.67 0.02 78 1006.8
20260507121538 49 298 2.0 9.0 0.00 0.67 0.02 79 1006.9
20260507120037 49 343 4.0 11.0 0.00 0.67 0.02 82 1007.0
20260507114537 47 281 1.0 8.0 0.00 0.67 0.02 85 1006.7
20260507113033 46 320 1.0 7.0 0.00 0.67 0.02 91 1006.9
20260507111533 45 321 1.0 3.0 0.00 0.67 0.02 95 1007.1
20260507110036 43 61 1.0 2.0 0.00 0.67 0.02 95 1007.0
20260507104535 42 0 0.0 2.0 0.00 0.67 0.02 95 1007.4
20260507103033 42 0 1.0 3.0 0.00 0.67 0.02 95 1007.2
20260507101540 42 0 0.0 2.0 0.00 0.67 0.02 95 1006.9
20260507100046 42 340 0.0 3.0 0.00 0.67 0.02 95 1007.0
20260507094537 42 0 0.0 2.0 0.00 0.67 0.02 94 1006.8
20260507093036 43 348 0.0 2.0 0.00 0.67 0.02 94 1006.5
20260507091557 43 0 0.0 2.0 0.00 0.67 0.02 94 1006.5
20260507090034 43 0 1.0 5.0 0.00 0.67 0.02 94 1006.6
20260507084537 43 0 0.0 2.0 0.00 0.67 0.02 94 1006.6
20260507083048 44 305 1.0 3.0 0.00 0.67 0.02 93 1006.7
20260507081531 44 344 0.0 3.0 0.00 0.67 0.02 92 1006.7
20260507080036 44 334 1.0 4.0 0.00 0.67 0.02 92 1006.2
20260507074534 44 24 1.0 5.0 0.00 0.67 0.02 93 1006.2
20260507073035 44 11 1.0 7.0 0.00 0.67 0.02 92 1006.2
20260507071536 45 332 2.0 8.0 0.00 0.67 0.02 92 1006.0
20260507070038 45 24 2.0 10.0 0.00 0.67 0.02 93 1006.0
20260507064537 45 62 1.0 6.0 0.00 0.67 0.02 94 1005.8
20260507063037 45 282 1.0 8.0 0.00 0.67 0.02 94 1005.6
20260507061535 45 0 1.0 6.0 0.00 0.67 0.02 94 1005.6
20260507060035 45 62 3.0 14.0 0.00 0.67 0.02 95 1005.4
20260507054539 46 28 2.0 8.0 0.00 0.67 0.02 95 1005.4
20260507053032 46 346 2.0 8.0 0.00 0.67 0.02 95 1005.2
20260507051537 46 36 2.0 7.0 0.01 0.67 0.02 95 1004.9
20260507050039 46 326 2.0 10.0 0.02 0.67 0.02 95 1005.1
20260507044539 47 35 3.0 12.0 0.05 0.67 0.02 95 1005.4
20260507043032 47 352 4.0 14.0 0.06 0.67 0.02 95 1005.2
20260507041542 48 5 4.0 12.0 0.06 0.66 0.01 95 1005.3
20260507040036 48 5 6.0 17.0 0.07 0.65 0.00 95 1005.2
20260507034537 49 343 2.0 15.0 0.06 0.62 0.62 96 1005.3
20260507033036 50 342 3.0 12.0 0.06 0.61 0.61 96 1004.9
20260507031532 51 347 4.0 15.0 0.09 0.60 0.60 97 1004.8
20260507030032 52 352 4.0 13.0 0.07 0.58 0.58 97 1004.6
20260507024532 53 54 2.0 7.0 0.05 0.56 0.56 97 1004.5
20260507023034 55 13 2.0 8.0 0.04 0.55 0.55 97 1004.5
20260507021536 56 286 0.0 2.0 0.00 0.51 0.51 98 1004.2
20260507020043 56 172 0.0 2.0 0.00 0.51 0.51 98 1004.0
20260507014542 56 0 0.0 4.0 0.00 0.51 0.51 98 1004.2
20260507013032 56 190 0.0 6.0 0.00 0.51 0.51 97 1004.3
20260507011532 56 0 0.0 4.0 0.00 0.51 0.51 97 1004.3
20260507010034 56 264 1.0 6.0 0.00 0.51 0.51 97 1004.4
20260507004541 56 240 1.0 7.0 0.00 0.51 0.51 97 1004.4
20260507003034 56 180 2.0 9.0 0.00 0.51 0.51 97 1004.2
20260507001531 56 125 2.0 13.0 0.00 0.51 0.51 97 1004.1
20260507000032 56 131 3.0 11.0 0.00 0.51 0.51 97 1004.0
20260506234537 56 147 5.0 20.0 0.00 0.52 0.51 97 1004.0
20260506233038 56 126 3.0 15.0 0.01 0.52 0.51 97 1004.1
20260506231547 56 175 4.0 14.0 0.02 0.52 0.51 97 1004.0
20260506230050 56 159 5.0 14.0 0.03 0.52 0.51 97 1004.1
20260506224535 56 186 4.0 10.0 0.05 0.52 0.51 97 1004.3